STARLINK-3760, 52298

Orbit data source: Space-Track

STARLINK-3760, 52298 is a payload satellite owned by SpaceX/Seattle (US) in LEO that was launched on Thu, 21 Apr 2022 UTC via an FALCON 9 launch vehicle from the Air Force Eastern Test Range (AFETR). Payload-class satellites include a variety of spacecraft equipped with specific instruments for various scientific and technological missions. These include communications satellites like Starlink; space stations such as the ISS; scientific satellites like the Hubble; Earth observation satellites from companies like Planet Labs, Umbra, and HawkEye 360; GPS; miniature CubeSats for education and research; and military/defense satellites.

Loading next visibility...
Identifier
52298, 2022-041AP
Orbit
LEO
Country
Flag of USUS
Related business
Manufacturer
SpaceX/Seattle
Mission
Operational Commercial Communications
Bus & Motor
STARLINK, Unknown motor
Mass
297 kg wet, ~275 kg dry
Launch date (UTC)
2022-04-21 (4 years ago)
Launch vehicle
FALCON 9
Launch site
Air Force Eastern Test Range (AFETR)
Object type
Payload
Rocket body
Debris
Shape & HBR
Box + 1 Pan, 10.1 m
Radar Cross Section
11.087 m², Large (>1 m²)

Expand to show TLE details & history
Last TLE update: 8 hours ago

TLE from 8 hours ago
0 STARLINK-3760
1 52298U 22041AP  26130.16518763 -.00000403  00000-0 -72112-5 0  9991
2 52298  53.2165 182.7588 0001349  86.0107 274.1040 15.08836578223790
Epoch: 2026-05-10T03:57Z
TLE epoch observation values (Epoch: 2026-05-10T03:57:52.211Z)
Latitude
0.00005°
Longitude
-104.6809°
Altitude
540.585 km
Speed
7.593 km/s
True Right ascension
12h 11m 02s
True Declination
0° 00' 00"
Sunlit
Object was in full shadow at epoch
Visualization orbit readout
Latitude
Unknown
Longitude
Unknown
Altitude
Unknown
Speed
Unknown
Apparent Right ascension
Unknown
Apparent Declination
Unknown
Sunlit
N/A
Visualization observer readout
Local Sidereal Time
19:47:48
Azimuth
Unknown
Elevation
Unknown
Doppler factor
Unknown
Orbital elements
Apogee altitude
540.932 km
Perigee altitude
539.066 km
Semi-major axis
6,918.136 km
Eccentricity
0.00013
Inclination
53.2165°
RAAN
182.7588°
Arg. of periapsis
86.0107°
True anomaly
274.08858°
Mean anomaly
274.104°
Eccentric anomaly
274.09629°
Mean motion
3.77189 °/min
Orbital period
95.44 mins
BSTAR
-0.0000072112
Loading maneuver chart data...
Computing Atmospheric mass density...
Loading historical data...
Loading historical data...
Loading historical data...
Loading historical data...
Loading historical data...
Loading historical data...
Loading historical data...

Documentation

Showing up to 5 results
|